QIANFAN-5 (60383 NORAD) Tracking and Keplerian Element Data

This shows tracking and keplerian element data for the satellite.

Feedback or suggestion? Click here.




ElementValue
Catalog60383
NameQIANFAN-5
Epoch Orbit946
Epoch Day285.71393977
Epoch Year2024
RAAN343.5731
Inclination88.9843
Eccentricity0.0013633
Argument of Perigee21.9181
Mean Anonmoly338.2587
Mean Motion14.15054534
Decay Rate2.034E-05
L11 60383U 24140E 24285.71393977 .00002034 00000+0 10425-2 0 9990
L22 60383 88.9843 343.5731 0013633 21.9181 338.2587 14.15054534 9463



Live tracking and technical data element details for QIANFAN-5 (NORAD 60383). QIANFAN-5 can be tracked NOW for your location showing map with azimuth and elevation plus other details from your city location.







IsCatalogInMostPopularTable: catalog: 60383, numindb: 4
Update: records affected: 1



GetName: 60383 QIANFAN-5

Hit Count: updated at: Tue, 03 Dec 2024 01:40:33 GMT